Home > Weather > Rovaniemi > Past weeks

Flag for Finland Past Weather in Rovaniemi, Finland — Yesterday and Last 2 Weeks

Now
50 °F

Sunny.


Feels Like: 48 °F
Forecast: 48 / 75 °F
Wind: 5 mph from South

Location: Rovaniemi Airport

Current Time: May 28, 2016 at 7:09:15 AM

Latest Report: May 28, 2016 at 6:20 AM


Visibility: 10 mi

Pressure: 30.39 "Hg

Humidity: 62%

Dew Point: 37 °F

Location of RovaniemiLocation

Past Weather in Rovaniemi — Graph

°F

Rovaniemi Temperature Yesterday

Maximum temperature yesterday: 63 °F (at 6:50 PM)
Minimum temperature yesterday: 43 °F (at 3:20 AM)
Average temperature yesterday: 53 °F

High & Low Weather Summary for the Past Weeks

 TemperatureHumidityPressure
High63 °F (May 21, 2:50 PM)100% (May 13, 6:50 AM)30.39 "Hg (May 13, 6:50 AM)
Low32 °F (May 18, 4:50 AM)30% (May 20, 7:20 PM)29.42 "Hg (May 17, 9:50 AM)
Average47 °F74%29.88 "Hg
* Reported May 13 6:20 AM — May 28 6:20 AM, Rovaniemi, Weather by CustomWeather, © 2016

Note: Actual official high and low records may vary slightly from our data, if they occured in-between our weather recording intervals... More about our weather records

Advertising

Rovaniemi Weather History for the Previous 24 Hours

Scroll right to see more
 ConditionsComfort  
Time TempWeatherWind HumidityBarometerVisibility
6:20 AM
Sat, May 28
50 °FSunny.5 mph62%30.39 "Hg10 mi
5:20 AM48 °FSunny.7 mph62%30.39 "Hg10 mi
4:50 AM48 °FSunny.8 mph62%30.36 "Hg10 mi
4:20 AM48 °FSunny.6 mph62%30.36 "Hg10 mi
3:50 AM48 °FSunny.6 mph62%30.36 "Hg10 mi
3:20 AM50 °FSunny.6 mph58%30.36 "Hg10 mi
2:50 AM50 °FClear.5 mph54%30.36 "Hg10 mi
2:20 AM50 °FClear.6 mph54%30.36 "Hg10 mi
1:50 AM52 °FSunny.6 mph50%30.36 "Hg10 mi
1:20 AM54 °FPassing clouds.5 mph44%30.36 "HgN/A
12:50 AM54 °FSunny.5 mph44%30.36 "Hg10 mi
12:20 AM55 °FSunny.3 mph41%30.36 "Hg10 mi
11:50 PM
Fri, May 27
55 °FSunny.3 mph38%30.33 "Hg10 mi
10:50 PM59 °FSunny.3 mph34%30.33 "Hg10 mi
10:20 PM59 °FSunny.3 mph36%30.33 "Hg10 mi
9:50 PM61 °FSunny.3 mph34%30.33 "Hg10 mi
9:20 PM61 °FSunny.2 mph34%30.33 "Hg10 mi
8:50 PM61 °FPassing clouds.3 mph34%30.30 "HgN/A
8:20 PM61 °FSunny.1 mph34%30.30 "Hg10 mi
7:50 PM63 °FPassing clouds.6 mph32%30.30 "HgN/A
7:20 PM61 °FPassing clouds.5 mph34%30.30 "HgN/A
6:50 PM63 °FPassing clouds.6 mph30%30.30 "HgN/A
6:20 PM61 °FSunny.2 mph34%30.30 "Hg10 mi
5:50 PM61 °FSunny.5 mph34%30.30 "Hg10 mi
5:20 PM61 °FSunny.5 mph36%30.30 "Hg10 mi
4:50 PM61 °FPassing clouds.5 mph36%30.30 "HgN/A
4:20 PM59 °FSunny.8 mph36%30.30 "Hg10 mi
3:50 PM59 °FSunny.8 mph39%30.30 "Hg10 mi
3:20 PM59 °FSunny.6 mph39%30.30 "Hg10 mi
2:50 PM57 °FPassing clouds.7 mph41%30.30 "HgN/A
2:20 PM59 °FSunny.7 mph42%30.30 "Hg10 mi
1:50 PM57 °FPassing clouds.7 mph41%30.33 "HgN/A
1:20 PM55 °FPassing clouds.9 mph44%30.33 "HgN/A
12:50 PM55 °FPassing clouds.7 mph44%30.33 "HgN/A
12:20 PM55 °FPassing clouds.10 mph44%30.33 "HgN/A
11:50 AM55 °FPassing clouds.10 mph47%30.33 "HgN/A
11:20 AM54 °FPassing clouds.10 mph47%30.33 "HgN/A
10:50 AM54 °FPassing clouds.9 mph47%30.33 "HgN/A
10:20 AM54 °FPassing clouds.10 mph51%30.33 "HgN/A
9:50 AM52 °FPassing clouds.7 mph54%30.33 "HgN/A
9:20 AM50 °FPassing clouds.9 mph54%30.33 "HgN/A
8:50 AM50 °FPassing clouds.8 mph54%30.33 "HgN/A
8:20 AM50 °FSunny.8 mph54%30.33 "Hg10 mi
7:50 AM48 °FPassing clouds.7 mph58%30.30 "HgN/A
7:20 AM48 °FSunny.8 mph58%30.30 "Hg10 mi
Weather by CustomWeather, © 2016

See weather overviewHow to use our weather pages